This is the latest recevied weather packets stored in our database for station/object KI6AOK. If no packets are shown the sender has not sent any weather packets the latest 10 day(s).
| Time | Temp. | Humidity | Pressure | Rain* | Wind** | Luminosity | Snow |
|---|---|---|---|---|---|---|---|
| 1777680472 | 22.22° C | 58% | 1011.8 hPa | 0 mm | - | 277 W/m² | - |
| 1777680170 | 22.78° C | 56% | 1011.7 hPa | 0 mm | - | 295 W/m² | - |
| 1777679864 | 22.78° C | 57% | 1011.9 hPa | 0 mm | - | 312 W/m² | - |
| 1777679561 | 22.78° C | 56% | 1011.7 hPa | 0 mm | - | 329 W/m² | - |
| 1777679256 | 22.78° C | 56% | 1011.8 hPa | 0 mm | - | 346 W/m² | - |
| 1777678954 | 23.33° C | 56% | 1011.8 hPa | 0 mm | - | 364 W/m² | - |
| 1777678652 | 23.33° C | 55% | 1011.7 hPa | 0 mm | - | 382 W/m² | - |
| 1777678349 | 23.33° C | 55% | 1011.6 hPa | 0 mm | - | 396 W/m² | - |
| 1777678044 | 23.89° C | 53% | 1011.6 hPa | 0 mm | - | 415 W/m² | - |
| 1777677742 | 23.89° C | 53% | 1011.8 hPa | 0 mm | - | 433 W/m² | - |
| 1777677439 | 23.89° C | 54% | 1011.6 hPa | 0 mm | - | 450 W/m² | - |
| 1777677137 | 23.89° C | 53% | 1011.7 hPa | 0 mm | - | 466 W/m² | - |
| 1777676836 | 23.89° C | 54% | 1011.9 hPa | 0 mm | - | 481 W/m² | - |
| 1777676534 | 23.89° C | 53% | 1012 hPa | 0 mm | - | 497 W/m² | - |
| 1777676231 | 23.89° C | 53% | 1012 hPa | 0 mm | - | 515 W/m² | - |
| 1777675928 | 23.89° C | 52% | 1011.9 hPa | 0 mm | - | 526 W/m² | - |
| 1777675624 | 24.44° C | 52% | 1011.9 hPa | 0 mm | - | 543 W/m² | - |
| 1777675321 | 24.44° C | 51% | 1012 hPa | 0 mm | - | 559 W/m² | - |
| 1777675018 | 23.89° C | 54% | 1012.1 hPa | 0 mm | - | 574 W/m² | - |
| 1777674714 | 23.89° C | 54% | 1012.2 hPa | 0 mm | - | 591 W/m² | - |
| 1777674411 | 23.89° C | 52% | 1012.2 hPa | 0 mm | - | 600 W/m² | - |
| 1777674109 | 23.89° C | 53% | 1012.2 hPa | 0 mm | - | 615 W/m² | - |
| 1777673804 | 23.89° C | 53% | 1012.1 hPa | 0 mm | - | 630 W/m² | - |
| 1777673502 | 23.89° C | 53% | 1012.4 hPa | 0 mm | - | 642 W/m² | - |
| 1777673199 | 23.89° C | 52% | 1012.4 hPa | 0 mm | - | 654 W/m² | - |
* Rain latest hour (hover to see other rain measurements)
** Current wind speed in m/s (hover to see current wind gust speed)